Shepherd Bay, Nunavut

10:59 PM CDT on September 21, 2017 (GMT -0500)
Shepherd Bay

Weather History for CYUS - October, 2013

Change the Weather History Date:

Tuesday, October 22, 2013

  Actual Average Record
Temperature  
Mean Temperature 22 °F -  
Max Temperature 24 °F 2 °F - ()
Min Temperature 21 °F -13 °F - ()
Degree Days  
Heating Degree Days 42    
Moisture  
Dew Point -    
Average Humidity    
Maximum Humidity    
Minimum Humidity    
Precipitation  
Precipitation 0.00 in 0.02 in - ()
Sea Level Pressure  
Sea Level Pressure 30.09 in    
Wind  
Wind Speed 8 mph ()    
Max Wind Speed 13 mph    
Max Gust Speed -    
Visibility 8.9 miles    
Events Snow    
T = Trace of Precipitation, MM = Missing Value Source: Averaged Metar Reports

Daily Weather History Graph

Daily Weather History Graph

Search for Another Location

Airport or City:

Trip Planner

Search our weather history database for the weather conditions in past years. The results will help you decide how hot, cold, wet, or windy it might be!

Date:

Astronomy

Oct. 22, 2013 Rise Set
Actual Time 8:50 AM CDT 5:04 PM CDT
Civil Twilight 7:48 AM CDT 6:06 PM CDT
Nautical Twilight 6:40 AM CDT 7:13 PM CDT
Astronomical Twilight 5:33 AM CDT 8:20 PM CDT
Moon 5:47 PM CDT 2:16 PM CDT
Length of Visible Light 10h 18m
Length of Day
8h 13m
Waning Gibbous, 86% of the Moon is Illuminated
Oct 22
Waning Gibbous
Oct 26
Last Quarter
Nov 3
New
Nov 9
First Quarter
Nov 17
Full

Hourly Weather History & Observations

Time (CDT) Temp. Windchill Dew Point Humidity Pressure Visibility Wind Dir Wind Speed Gust Speed Precip Events Conditions
12:00 AM 24.8 °F 16.9 °F - N/A% 30.19 in 9.0 mi East 6.9 mph - N/A   Overcast
1:00 AM 23 °F - - % 30.18 in 9 mi East 6.9 mph - -   Overcast
1:00 AM 23.0 °F 14.7 °F - N/A% 30.18 in 9.0 mi East 6.9 mph - N/A   Overcast
2:00 AM 23.0 °F 14.7 °F - N/A% 30.18 in 9.0 mi East 6.9 mph - N/A   Overcast
3:00 AM 23.0 °F 15.8 °F - N/A% 30.17 in 9.0 mi East 5.8 mph - N/A   Overcast
4:00 AM 24 °F - - % 30.17 in 9 mi ESE 6.9 mph - -   Overcast
4:00 AM 24.8 °F 16.1 °F - N/A% 30.17 in 9.0 mi ESE 8.1 mph - N/A   Overcast
5:00 AM 23.0 °F 15.8 °F - N/A% 30.16 in 9.0 mi East 5.8 mph - N/A   Overcast
6:00 AM 23.0 °F 17.0 °F - N/A% 30.16 in 9.0 mi East 4.6 mph - N/A   Overcast
7:00 AM 23 °F - - % 30.15 in 9 mi East 6.9 mph - -   Overcast
7:00 AM 23.0 °F 14.7 °F - N/A% 30.15 in 9.0 mi East 6.9 mph - N/A   Overcast
8:00 AM 24.8 °F 15.3 °F - N/A% 30.13 in 9.0 mi ENE 9.2 mph - N/A   Overcast
9:00 AM 23.0 °F 13.9 °F - N/A% 30.13 in 9.0 mi ENE 8.1 mph - N/A   Overcast
10:00 AM 24 °F - - % 30.12 in 9 mi East 8.1 mph - -   Overcast
10:00 AM 23.0 °F 13.9 °F - N/A% 30.12 in 9.0 mi East 8.1 mph - N/A   Overcast
11:00 AM 24.8 °F 16.1 °F - N/A% 30.11 in 9.0 mi East 8.1 mph - N/A   Overcast
11:48 AM 24.8 °F 15.3 °F - N/A% 30.08 in 9.0 mi East 9.2 mph - N/A   Overcast
12:00 PM 24.8 °F 14.0 °F - N/A% 30.10 in 9.0 mi East 11.5 mph - N/A   Overcast
1:00 PM 24 °F - - % 30.09 in 9 mi East 10.4 mph - -   Overcast
1:00 PM 24.8 °F 14.0 °F - N/A% 30.09 in 9.0 mi East 11.5 mph - N/A   Overcast
1:42 PM 24.8 °F 14.6 °F - N/A% 30.07 in 9.0 mi ESE 10.4 mph - N/A   Overcast
2:00 PM 23.0 °F 12.4 °F - N/A% 30.09 in 9.0 mi ESE 10.4 mph - N/A   Overcast
2:21 PM 24.8 °F 14.6 °F - N/A% 30.07 in 9.0 mi ESE 10.4 mph - N/A   Overcast
3:00 PM 24.8 °F 14.6 °F - N/A% 30.09 in 9.0 mi ESE 10.4 mph - N/A   Overcast
3:07 PM 24.8 °F 14.6 °F - N/A% 30.07 in 9.0 mi ESE 10.4 mph - N/A   Overcast
4:00 PM 24 °F - - % 30.08 in 9 mi ESE 10.4 mph - -   Overcast
4:00 PM 24.8 °F 14.6 °F - N/A% 30.08 in 9.0 mi ESE 10.4 mph - N/A   Overcast
4:33 PM 24.8 °F 15.3 °F - N/A% 30.06 in 9.0 mi ESE 9.2 mph - N/A   Overcast
5:00 PM 23.0 °F 12.4 °F - N/A% 30.08 in 9.0 mi ESE 10.4 mph - N/A   Overcast
6:00 PM 23.0 °F 12.4 °F - N/A% 30.08 in 9.0 mi ESE 10.4 mph - N/A   Overcast
6:30 PM 23.0 °F 12.4 °F - N/A% 30.06 in 9.0 mi ESE 10.4 mph - N/A   Overcast
6:52 PM 23.0 °F 13.1 °F - N/A% 30.06 in 9.0 mi ESE 9.2 mph - N/A   Overcast
7:00 PM 23 °F - - % 30.08 in 9 mi ESE 9.2 mph - -   Overcast
7:00 PM 23.0 °F 13.1 °F - N/A% 30.08 in 9.0 mi ESE 9.2 mph - N/A   Overcast
7:59 PM 23.0 °F 13.9 °F - N/A% 30.05 in 9.0 mi ESE 8.1 mph - N/A Snow Light Snow
8:00 PM 23.0 °F 13.9 °F - N/A% 30.07 in 9.0 mi ESE 8.1 mph - N/A Snow Light Snow
8:06 PM 23.0 °F 14.7 °F - N/A% 30.05 in 9.0 mi ESE 6.9 mph - N/A Snow Light Snow
8:14 PM 23.0 °F 14.7 °F - N/A% 30.05 in 9.0 mi ESE 6.9 mph - N/A   Overcast
9:00 PM 23.0 °F 12.4 °F - N/A% 30.06 in 9.0 mi SE 10.4 mph - N/A   Overcast
9:04 PM 23.0 °F 12.4 °F - N/A% 30.04 in 9.0 mi SE 10.4 mph - N/A   Overcast
10:00 PM 23 °F - - % 30.06 in 9 mi SE 10.4 mph - -   Overcast
10:00 PM 23.0 °F 12.4 °F - N/A% 30.06 in 9.0 mi SE 10.4 mph - N/A   Overcast
10:17 PM 23.0 °F 12.4 °F - N/A% 30.04 in 9.0 mi SE 10.4 mph - N/A   Overcast
10:31 PM 23.0 °F 12.4 °F - N/A% 30.04 in 9.0 mi SE 10.4 mph - N/A Snow Light Snow
11:00 PM 21.2 °F 8.9 °F - N/A% 30.06 in 8.0 mi SE 12.7 mph - N/A Snow Light Snow
11:09 PM 23.0 °F 11.1 °F - N/A% 30.04 in 9.0 mi SE 12.7 mph - N/A   Mostly Cloudy
11:16 PM 23.0 °F 11.7 °F - N/A% 30.04 in 8.0 mi SE 11.5 mph - N/A   Mostly Cloudy
11:22 PM 23.0 °F 11.7 °F - N/A% 30.04 in 7.0 mi SE 11.5 mph - N/A Snow Light Snow
11:49 PM 23.0 °F 13.9 °F - N/A% 30.04 in 9.0 mi SE 8.1 mph - N/A Snow Light Snow